Location: Newark
(25.4800°N, 85.7200°E)
Time: 03:21:42
(UTC+00:00)

Explorer 11/Cluster Stage 4 - Pass Details

Date: 22 August 2019
Orbit: 467 x 1259 km, 28.8° (Epoch: 22 October)

Event Time Altitude Azimuth Distance (km) Brightness Sun altitude
Rises 11:55:48 0° 274° (W) 3,693 12.3 10.4°
Reaches altitude 10° 11:59:29 10° 258° (WSW) 2,575 10.9 9.6°
Maximum altitude 12:03:36 19° 215° (SW) 1,835 8.9 8.7°
Drops below altitude 10° 12:07:12 10° 171° (S) 2,188 8.7 7.9°
Sets 12:10:01 0° 153° (SSE) 2,959 9.2 7.3°
